星链-30797 (STARLINK-30797 )

导读

STARLINK-30797是美国太空探索技术公司SpaceX星链互联网卫星星座的一员,于2023年10月29日发射入轨,承担全球低延迟宽带互联网覆盖任务。星链作为大规模近地轨道卫星星座,该星的入轨进一步扩充了星座规模,提升服务覆盖密度,为全球尤其是偏远区域提供互联网接入服务。

基本信息
目录编号:
58154
目录名称:
STARLINK-30797
国际标识:
2023-166E
轨道中心:
EARTH
卫星名称:
星链-30797
卫星全名:
星链-30797 (STARLINK-30797 )
卫星状态:
在轨 (已飞行1048 天)
发射日期:
2023-10-29 UTC
国别 :
美国 (US)
星等 :
--
该卫星已列入 空间交会检测服务 Space Conjunction Data Service (SCDS) ,当前飞行风险评估等级: 无高风险
轨道信息
数据来源 国际轨道数据 AOE轨道数据
星历时间 2026-09-11T07:00:30+0800
18小时前
查看轨道信息
2026-09-05T12:00:00+0800
6天前
查看轨道信息
半长轴 6840.856km 6840.816km
偏心率 0.0001071 0.0001451
轨道倾角 53.161° 53.160°
近地点辐角 102.962° 78.321°
升交点赤经 78.210° 105.284°
平近点角 257.150° 309.936°
近地点 461.986km 461.686km
远地点 463.452km 463.672km
周期 93.848分钟 93.847分钟
每日圈数 15.34395 15.344084
详细信息
固有亮度:
5
最大亮度:
0.3
卫星平台:
Starlink v2.0 mini
覆盖范围:
全球
运营商:
太空探索技术公司
运营商所在国:
美国
制造商(研发单位):
太空探索技术公司
制造商所在国:
美国
使用方式:
暂无
卫星简介
星链(Starlink)计划是由太空探索技术公司(SpaceX)提出的一个巨型低轨卫星互联网星座项目,计划在2019年至2024年间在太空搭建由约1.2万颗卫星组成的“星链”网络,其中1584颗将部署在地球上空550千米处的近地轨道,并从2020年开始工作。该卫星仍在工作。
2D轨道图
3D轨道图
轨道高度分析图
轨道倾角分析图
轨道综合分析图
查看轨道综合分析图
交会数据列表
事件ID 空间交会对象 最接近时刻(TCA) 交会距离 交会风险概率(CRP) 交会风险指数(CRI) 操作
CDM_260913-214805-815406-819421
2026-09-13T
21:48:16+0000
0.763 km
远距离
2.971857E-5 中风险 0.64
CDM_260913-210105-815406-549421
2026-09-13T
21:01:44+0000
0.785 km
远距离
2.865795E-5 中风险 0.64
CDM_260913-162005-815406-819421
2026-09-13T
16:20:00+0000
1.313 km
极远距离
4.715632E-6 低风险 0.48
CDM_260913-175305-815406-819421
2026-09-13T
17:53:47+0000
2.112 km
极远距离
1.230958E-6 低风险 0.37
与全量物体交会距离演化趋势
与全量物体交会风险概率演化趋势